Weather History for Tekamah, NE

Change the Weather History Date:

Tuesday, November 25, 2014

  Actual Average Record
Temperature  
Mean Temperature 28 °F -  
Max Temperature 44 °F 45 °F 79 °F (1960)
Min Temperature 12 °F 22 °F 4 °F (1977)
Degree Days  
Heating Degree Days 37    
Moisture  
Dew Point 19 °F    
Average Humidity 61    
Maximum Humidity 83    
Minimum Humidity 45    
Precipitation  
Precipitation 0.01 in - - ()
Sea Level Pressure  
Sea Level Pressure 30.05 in    
Wind  
Wind Speed 10 mph (South)    
Max Wind Speed 16 mph    
Max Gust Speed -    
Visibility 10 miles    
Events Rain    
Averages and records for this station are not official NWS values.
T = Trace of Precipitation, MM = Missing Value Source: NWS Daily Summary

Daily Weather History Graph

Daily Weather History Graph

Search for Another Location

Airport:

Trip Planner

Search our weather history database for the weather conditions in past years. The results will help you decide how hot, cold, wet, or windy it might be!

Date:

Astronomy

Nov. 25, 2014 Rise Set
Actual Time 7:25 AM CST 4:57 PM CST
Civil Twilight 6:55 AM CST 5:27 PM CST
Nautical Twilight 6:21 AM CST 6:02 PM CST
Astronomical Twilight 5:47 AM CST 6:35 PM CST
Moon 10:11 AM CST (11/25) 8:24 PM CST (11/25)
Length of Visible Light 10h 32m
Length of Day
9h 31m
Waxing Crescent, 13% of the Moon is Illuminated
Nov 25
Waxing Crescent
Nov 29
First Quarter
Dec 6
Full
Dec 14
Last Quarter
Dec 21
New

Hourly Weather History & Observations

Time (CST) Temp. Windchill Dew Point Humidity Pressure Visibility Wind Dir Wind Speed Gust Speed Precip Events Conditions
1:54 AM 19.9 °F 7.3 °F 8.1 °F 60% 30.14 in 10.0 mi WNW 12.7 mph - N/A   Clear
2:54 AM 19.9 °F 8.6 °F 8.1 °F 60% 30.16 in 10.0 mi NW 10.4 mph - N/A   Clear
3:54 AM 18.0 °F 9.8 °F 7.0 °F 62% 30.17 in 10.0 mi West 5.8 mph - N/A   Clear
4:54 AM 17.1 °F 6.6 °F 7.0 °F 65% 30.17 in 10.0 mi West 8.1 mph - N/A   Clear
5:54 AM 15.1 °F 9.4 °F 6.1 °F 68% 30.16 in 10.0 mi WSW 3.5 mph - N/A   Clear
6:54 AM 12.9 °F 3.8 °F 7.0 °F 77% 30.17 in 10.0 mi SW 5.8 mph - N/A   Clear
7:54 AM 12.9 °F 2.6 °F 6.1 °F 74% 30.17 in 10.0 mi South 6.9 mph - N/A   Clear
8:54 AM 21.0 °F 11.4 °F 12.0 °F 68% 30.15 in 10.0 mi South 8.1 mph - N/A   Clear
9:54 AM 27.0 °F 18.0 °F 15.1 °F 61% 30.15 in 10.0 mi South 9.2 mph - N/A   Mostly Cloudy
10:32 AM 30.9 °F 23.5 °F 15.1 °F 52% 30.12 in 0.5 mi South 8.1 mph - N/A   Haze
10:46 AM 33.1 °F 24.9 °F 16.0 °F 50% 30.12 in - SSE 10.4 mph - N/A   Scattered Clouds
10:54 AM 34.0 °F 26.0 °F 17.1 °F 50% 30.14 in - SSE 10.4 mph - N/A   Partly Cloudy
11:54 AM 37.9 °F 30.0 °F 18.0 °F 45% 30.09 in 10.0 mi South 12.7 mph - N/A   Clear
12:54 PM 41.0 °F 34.3 °F 23.0 °F 49% 30.05 in 10.0 mi South 11.5 mph - N/A   Clear
1:54 PM 43.0 °F 36.0 °F 25.0 °F 49% 30.01 in 10.0 mi South 13.8 mph - N/A   Clear
2:54 PM 44.1 °F 36.8 °F 26.1 °F 49% 29.99 in 10.0 mi South 16.1 mph - N/A   Clear
3:54 PM 43.0 °F 36.8 °F 26.1 °F 51% 29.98 in 10.0 mi South 11.5 mph - N/A   Clear
4:54 PM 39.0 °F 32.3 °F 25.0 °F 57% 29.96 in 10.0 mi SE 10.4 mph - N/A   Mostly Cloudy
5:54 PM 37.9 °F 29.6 °F 24.1 °F 57% 29.96 in 10.0 mi SE 13.8 mph - N/A   Overcast
6:54 PM 36.0 °F 27.5 °F 24.1 °F 62% 29.94 in 10.0 mi SE 12.7 mph - N/A   Overcast
7:54 PM 37.0 °F 33.3 °F 25.0 °F 62% 29.94 in 10.0 mi South 4.6 mph - N/A   Overcast
8:54 PM 39.0 °F 32.3 °F 28.0 °F 65% 29.91 in 10.0 mi South 10.4 mph - 0.00 in Rain Light Rain
9:14 PM 39.0 °F 30.3 °F 30.9 °F 73% 29.89 in 10.0 mi South 16.1 mph - 0.00 in Rain Light Rain
9:54 PM 37.9 °F 30.5 °F 33.1 °F 83% 29.88 in 10.0 mi SE 11.5 mph - 0.01 in Rain Light Rain
10:54 PM 37.0 °F 29.3 °F 30.0 °F 76% 29.86 in 10.0 mi SE 11.5 mph - 0.00 in Rain Light Rain